Location: Bukit Nyuki
(2.5885°N, 113.7476°E)
Time: 06:09:57
(UTC+00:00)

Cosmos 1825 - Pass Details

Date: 18 May 2021
Orbit: 500 x 507 km, 82.5° (Epoch: 22 June)

Event Time Altitude Azimuth Distance (km) Brightness Sun altitude
Exits shadow 21:16:10 - 189° (S) 1,943 4.8 -14.4°
Reaches altitude 10° 21:16:43 10° 190° (S) 1,713 4.5 -14.3°
Maximum altitude 21:20:27 69° 273° (W) 542 2.0 -13.4°
Drops below altitude 10° 21:24:11 10° 357° (N) 1,710 5.1 -12.6°
Sets 21:26:18 0° 0° (N) 2,593 6.0 -12.1°
